Terminal Aerodrome Forecast
Issued by NWS Pocatello, ID

Home | Current Version | Previous Version | Text Only | Print | Product List | Glossary On
Versions: 1 2 3 4 5 6 7 8 9 10 11 12 13 14 15 16 17 18 19 20 21
000
FTUS45 KPIH 310300 AAA
TAFBYI
TAF AMD
KBYI 310301Z 3103/3124 28007KT 6SM BR BKN011
     FM310700 25006KT 6SM BR BKN008
     FM311700 27008KT 6SM BR SCT010=

USA.gov is the U.S. government's official web portal to all federal, state and local government web resources and services.